SQ6XL-13 Weather Reports


time (UTC)temp
C
wind
direction
speed
KPH
gust
KPH
rain 1hr
cm
rain 24hr
cm
rain mn
cm
humidity
%
barometer
mb
20260507002501 12 0.0 0.0 0.25 0.00 0.00 99 1008.0
20260507001601 12 0.0 0.0 0.25 0.00 0.00 99 1007.9
20260507000711 12 0.0 0.0 0.28 0.00 0.00 99 1008.1
20260506235902 12 0.0 0.0 0.25 0.00 0.00 99 1008.6
20260506235016 12 0.0 0.0 0.28 0.00 0.00 99 1008.7
20260506234113 12 0.0 0.0 0.28 0.00 0.00 99 1008.5
20260506233229 12 0.0 0.0 0.33 0.00 0.00 99 1008.5
20260506232237 12 0.0 0.0 0.38 0.00 0.00 99 1008.2
20260506231332 12 0.0 0.0 0.41 0.00 0.00 99 1008.1
20260506230501 12 0.0 0.0 0.15 0.00 0.00 99 1008.1
20260506225506 12 0.0 0.0 0.08 0.00 0.00 99 1008.1
20260506224531 12 0.0 0.0 0.08 0.00 0.00 99 1008.0
20260506223537 12 0.0 0.0 0.00 0.00 0.00 99 1008.1
20260506222721 12 0.0 0.0 0.00 0.00 0.00 99 1007.9
20260506221846 12 0.0 0.0 0.00 0.00 0.00 99 1008.2
20260506220926 12 0.0 0.0 0.00 0.00 0.00 99 1008.1
20260506220026 12 0.0 0.0 0.00 0.00 0.00 99 1008.0
20260506215207 12 0.0 0.0 0.00 0.00 0.00 99 1007.6
20260506214322 12 0.0 0.0 0.00 0.00 0.00 99 1007.5
20260506213506 12 0.0 0.0 0.00 0.00 0.00 99 1007.2
20260506212621 12 0.0 0.0 0.00 0.00 0.00 99 1007.3
20260506211627 12 0.0 0.0 0.00 0.00 0.00 99 1007.1
20260506210637 12 0.0 0.0 0.00 0.00 0.00 99 1007.4
20260506205707 12 0.0 0.0 0.00 0.00 0.00 99 1007.2
20260506204707 12 0.0 0.0 0.00 0.00 0.00 99 1007.0
20260506203902 12 0.0 0.0 0.00 0.00 0.00 99 1007.0
20260506203006 12 0.0 0.0 0.00 0.00 0.00 99 1007.2
20260506202051 12 0.0 0.0 0.00 0.00 0.00 99 1007.2
20260506201106 12 0.0 0.0 0.00 0.00 0.00 99 1007.3
20260506200237 12 0.0 0.0 0.00 0.00 0.00 99 1007.6
20260506195356 12 0.0 0.0 0.18 0.00 0.00 99 1007.5
20260506194541 12 0.0 0.0 0.30 0.00 0.00 99 1007.4
20260506193621 12 0.0 0.0 0.56 0.00 0.00 99 1007.3
20260506192711 12 0.0 0.0 1.32 0.00 0.00 99 1007.5
20260506191827 12 0.0 0.0 1.40 0.00 0.00 99 1007.6
20260506191021 12 0.0 0.0 0.10 0.00 0.00 99 1007.3
20260506190114 12 0.0 0.0 0.05 0.00 0.00 99 1006.8
20260506185212 12 0.0 0.0 0.00 0.00 0.00 99 1006.2
20260506184231 12 0.0 0.0 0.00 0.00 0.00 99 1006.4
20260506183418 12 0.0 0.0 0.00 0.00 0.00 99 1006.3
20260506182622 12 0.0 0.0 0.00 0.00 0.00 99 1006.3
20260506181712 12 0.0 0.0 0.10 0.00 0.00 99 1006.3
20260506180811 12 0.0 0.0 1.12 0.00 0.00 99 1006.3
20260506175937 12 0.0 0.0 1.80 0.00 0.00 98 1006.7
20260506175122 12 0.0 0.0 1.55 0.00 0.00 98 1007.1
20260506174126 12 0.0 0.0 0.94 0.00 0.00 98 1006.9
20260506173131 13 0.0 0.0 0.25 0.00 0.00 98 1006.0
20260506172202 13 0.0 0.0 0.10 0.00 0.00 97 1006.5
20260506171316 12 0.0 0.0 0.13 0.00 0.00 96 1006.0
20260506170351 13 0.0 0.0 0.56 0.00 0.00 96 1005.6
20260506165356 13 0.0 0.0 0.66 0.00 0.00 95 1006.0
20260506164511 13 0.0 0.0 0.56 0.00 0.00 94 1006.4
20260506163552 13 0.0 0.0 0.38 0.00 0.00 94 1006.2
20260506162637 13 0.0 0.0 0.00 0.00 0.00 93 1006.0
20260506161832 13 0.0 0.0 0.00 0.00 0.00 92 1005.8
20260506160842 13 0.0 0.0 0.00 0.00 0.00 91 1006.1
20260506155931 13 0.0 0.0 0.00 0.00 0.00 90 1006.1
20260506155116 13 0.0 0.0 0.00 0.00 0.00 88 1006.2
20260506154155 13 0.0 0.0 0.28 0.00 0.00 82 1006.6
20260506153251 15 0.0 0.0 0.23 0.00 0.00 74 1007.0
20260506152321 19 0.0 0.0 0.00 0.00 0.00 63 1006.9
20260506151422 20 0.0 0.0 0.00 0.00 0.00 58 1006.2
20260506150451 20 0.0 0.0 0.00 0.00 0.00 55 1006.1
20260506145612 21 0.0 0.0 0.00 0.00 0.00 54 1006.2
20260506144712 21 0.0 0.0 0.00 0.00 0.00 53 1006.2
20260506143757 21 0.0 0.0 0.00 0.00 0.00 52 1006.2
20260506142756 22 0.0 0.0 0.00 0.00 0.00 49 1006.3
20260506141831 22 0.0 0.0 0.00 0.00 0.00 50 1006.3
20260506141012 22 0.0 0.0 0.00 0.00 0.00 52 1006.5
20260506140026 22 0.0 0.0 0.00 0.00 0.00 51 1006.7
20260506135222 22 0.0 0.0 0.00 0.00 0.00 52 1006.7
20260506134306 22 0.0 0.0 0.00 0.00 0.00 53 1006.8
20260506133411 22 0.0 0.0 0.00 0.00 0.00 52 1006.9
20260506132606 22 0.0 0.0 0.00 0.00 0.00 53 1007.0
20260506131641 22 0.0 0.0 0.00 0.00 0.00 51 1007.1
20260506130736 22 0.0 0.0 0.00 0.00 0.00 50 1007.2
20260506125911 22 0.0 0.0 0.00 0.00 0.00 51 1007.2
20260506124941 22 0.0 0.0 0.00 0.00 0.00 52 1007.2
20260506124016 22 0.0 0.0 0.00 0.00 0.00 53 1007.3
20260506123142 21 0.0 0.0 0.00 0.00 0.00 54 1007.3
20260506122246 21 0.0 0.0 0.00 0.00 0.00 54 1007.3
20260506121337 21 0.0 0.0 0.00 0.00 0.00 54 1007.4
20260506120341 20 0.0 0.0 0.00 0.00 0.00 57 1007.4
20260506115500 21 0.0 0.0 0.00 0.00 0.00 58 1007.2
20260506114636 21 0.0 0.0 0.00 0.00 0.00 57 1007.3
20260506113817 20 0.0 0.0 0.00 0.00 0.00 58 1007.3
20260506112821 21 0.0 0.0 0.00 0.00 0.00 58 1007.3
20260506111857 21 0.0 0.0 0.00 0.00 0.00 59 1007.4
20260506111041 20 0.0 0.0 0.00 0.00 0.00 61 1007.5
20260506110042 20 0.0 0.0 0.00 0.00 0.00 63 1007.4
20260506105047 20 0.0 0.0 0.00 0.00 0.00 64 1007.5
20260506104201 19 0.0 0.0 0.00 0.00 0.00 65 1007.4
20260506103331 20 0.0 0.0 0.00 0.00 0.00 63 1007.5
20260506102406 19 0.0 0.0 0.00 0.00 0.00 64 1007.5
20260506101406 19 0.0 0.0 0.00 0.00 0.00 64 1007.6
20260506100457 20 0.0 0.0 0.00 0.00 0.00 63 1007.4
20260506095542 19 0.0 0.0 0.00 0.00 0.00 64 1007.3
20260506094657 18 0.0 0.0 0.00 0.00 0.00 66 1007.2
20260506093855 18 0.0 0.0 0.00 0.00 0.00 66 1007.1
20260506092932 17 0.0 0.0 0.00 0.00 0.00 68 1007.0
20260506092037 17 0.0 0.0 0.00 0.00 0.00 67 1006.9
20260506091107 16 0.0 0.0 0.00 0.00 0.00 70 1006.8
20260506090112 16 0.0 0.0 0.00 0.00 0.00 72 1006.9
20260506085142 16 0.0 0.0 0.00 0.00 0.00 72 1007.1
20260506084247 16 0.0 0.0 0.00 0.00 0.00 73 1007.2
20260506083402 16 0.0 0.0 0.00 0.00 0.00 75 1007.3
20260506082407 16 0.0 0.0 0.00 0.00 0.00 74 1007.2
20260506081547 16 0.0 0.0 0.00 0.00 0.00 75 1007.2
20260506080622 16 0.0 0.0 0.00 0.00 0.00 76 1007.2
20260506073042 17 0.0 0.0 0.00 0.00 0.00 74 1006.9
20260506072122 17 0.0 0.0 0.00 0.00 0.00 74 1006.7
20260506071317 17 0.0 0.0 0.00 0.00 0.00 74 1006.8
20260506070320 17 0.0 0.0 0.00 0.00 0.00 74 1006.8
20260506062007 16 0.0 0.0 0.00 0.00 0.00 78 1006.5
20260506061207 16 0.0 0.0 0.00 0.00 0.00 79 1006.5
20260506060257 15 0.0 0.0 0.00 0.00 0.00 82 1006.4
20260506050712 15 0.0 0.0 0.00 0.00 0.00 81 1006.1
20260506044737 13 0.0 0.0 0.00 0.00 0.00 84 1005.9
20260506043907 13 0.0 0.0 0.00 0.00 0.00 81 1006.0
20260506043007 13 0.0 0.0 0.00 0.00 0.00 80 1006.0
20260506042022 13 0.0 0.0 0.00 0.00 0.00 80 1005.9
20260506041107 12 0.0 0.0 0.00 0.00 0.00 85 1005.7
20260506040107 12 0.0 0.0 0.00 0.00 0.00 85 1005.6
20260506035127 12 0.0 0.0 0.00 0.00 0.00 88 1005.6
20260506034126 12 0.0 0.0 0.00 0.00 0.00 91 1005.6
20260506033202 12 0.0 0.0 0.00 0.00 0.00 92 1005.6
20260506032347 11 0.0 0.0 0.00 0.00 0.00 91 1005.0
20260506031442 11 0.0 0.0 0.00 0.00 0.00 89 1005.4
20260506030502 11 0.0 0.0 0.00 0.00 0.00 89 1005.6
20260506025537 11 0.0 0.0 0.00 0.00 0.00 88 1005.6
20260506024617 11 0.0 0.0 0.00 0.00 0.00 88 1005.6
20260506023637 12 0.0 0.0 0.00 0.00 0.00 86 1005.8
20260506022722 12 0.0 0.0 0.00 0.00 0.00 84 1005.9
20260506021912 12 0.0 0.0 0.00 0.00 0.00 82 1006.0
20260506020927 12 0.0 0.0 0.00 0.00 0.00 81 1006.1
20260506015927 13 0.0 0.0 0.00 0.00 0.00 79 1005.9
20260506014957 13 0.0 0.0 0.00 0.00 0.00 75 1005.9
20260506014017 13 0.0 0.0 0.00 0.00 0.00 72 1005.8
20260506013057 14 0.0 0.0 0.00 0.00 0.00 72 1005.8
20260506012232 14 0.0 0.0 0.00 0.00 0.00 71 1005.7
20260506011307 15 0.0 0.0 0.00 0.00 0.00 70 1005.9
20260506010427 14 0.0 0.0 0.00 0.00 0.00 70 1005.8
20260506005614 14 0.0 0.0 0.00 0.00 0.00 70 1005.9
20260506004757 14 0.0 0.0 0.00 0.00 0.00 71 1005.8
20260506003858 14 0.0 0.0 0.00 0.00 0.00 72 1005.8
20260506002957 13 0.0 0.0 0.00 0.00 0.00 74 1005.9